Regional Weather Roundup
Issued by NWS

Home | Current Version | Previous Version | Text Only | Print | Product List | Glossary On
Versions: 1 2 3 4 5 6 7 8 9 10 11 12 13 14 15 16 17 18 19 20 21 22 23 24 25 26 27 28 29 30 31 32 33 34 35 36 37 38 39 40 41 42 43 44 45 46 47 48 49 50
078
ASUS43 KDTX 061810
RWRMI
MICHIGAN HOURLY REGIONAL WEATHER ROUNDUP
NATIONAL WEATHER SERVICE DETROIT/PONTIAC MI
100 PM EST SAT FEB 06 2016

NOTE: "FAIR" INDICATES FEW OR NO CLOUDS BELOW 12,000 FEET WITH NO
SIGNIFICANT WEATHER AND/OR OBSTRUCTION TO VISIBILITY.

MIZ047>049-052>055-059>063-066>070-074>076-081>083-061900-
SOUTHEAST LOWER MICHIGAN

CITY           SKY/WX    TMP DP  RH WIND       PRES   REMARKS
ADRIAN         MOSUNNY   40  25  55 SW12      30.24F WCI  33
6HR MIN TEMP:  28; 6HR MAX TEMP:  41;

ALMA           CLOUDY    35  24  64 SW12G18   30.16F WCI  27
ANN ARBOR      PTSUNNY   37  20  50 SW16      30.21F WCI  28
BAD AXE        CLOUDY    35  25  66 SW12G17   30.14F WCI  26
CARO           MOSUNNY   35  22  58 SW16G25   30.15F WCI  26
DETROIT CITY   SUNNY     38  17  42 SW14      30.21F WCI  30
6HR MIN TEMP:  25; 6HR MAX TEMP:  38;

DETROIT        MOSUNNY   37  20  50 SW13      30.23F WCI  29
6HR MIN TEMP:  25; 6HR MAX TEMP:  38;

FLINT          MOSUNNY   38  19  46 SW17G24   30.19F WCI  28
6HR MIN TEMP:  26; 6HR MAX TEMP:  39;

GROSSE ILE     SUNNY     37  21  52 SW10      30.22F WCI  30
HILLSDALE      SUNNY     33  23  67 SW10      30.21F WCI  24
6HR MIN TEMP:  21; 6HR MAX TEMP:  33;

HOWELL         CLOUDY    36  22  56 SW13      30.19F WCI  27
6HR MIN TEMP:  24; 6HR MAX TEMP:  36;


CITY           SKY/WX    TMP DP  RH WIND       PRES   REMARKS
JACKSON        SUNNY     35  21  56 W14       30.19F WCI  26
6HR MIN TEMP:  24; 6HR MAX TEMP:  35;

LAMBERTVILLE   SUNNY     36  23  59 SW9       30.24F WCI  29
6HR MIN TEMP:  23; 6HR MAX TEMP:  37;

LANSING        SUNNY     35  20  54 SW20G25   30.19F WCI  24
6HR MIN TEMP:  24; 6HR MAX TEMP:  35;

LAPEER         FAIR      36  21  53 SW14G21   30.18F WCI  27
6HR MIN TEMP:  23; 6HR MAX TEMP:  36;

MASON          SUNNY     35  20  55 SW12G17   30.19F WCI  26
MONROE         SUNNY     36  23  59 SW14      30.22F WCI  27
6HR MIN TEMP:  25; 6HR MAX TEMP:  36;

MT. CLEMENS    PTSUNNY   38  20  47 SW10      30.19F WCI  31
6HR MIN TEMP:  25; 6HR MAX TEMP:  38;

PONTIAC        PTSUNNY   35  18  49 SW13      30.17F WCI  26
6HR MIN TEMP:  23; 6HR MAX TEMP:  36;

PORT HOPE        N/A     33  23  66 SW13G23   30.12F WCI  24
6HR MIN TEMP:  25; 6HR MAX TEMP:  33;

PORT HURON     CLOUDY    36  23  60 SW7       30.20F WCI  30
TRI CITIES     PTSUNNY   35  23  61 SW20      30.16F WCI  24
6HR MIN TEMP:  25; 6HR MAX TEMP:  36;

MIDLAND        CLOUDY    35  20  52 SW16G23   30.14F WCI  26
6HR MIN TEMP:  26; 6HR MAX TEMP:  36;

TROY           MOSUNNY   38  16  39 SW10G18   30.22F WCI  32
SAGINAW HB     MOSUNNY   36  25  64 SW21      30.16F WCI  24
$$
MIZ043>046-050>051-056>058-064>065-071>073-077>080-061900-
SOUTHWEST LOWER MICHIGAN

CITY           SKY/WX    TMP DP  RH WIND       PRES   REMARKS
BATTLE CREEK   SUNNY     33  23  66 SW14      30.21F WCI  23
6HR MIN TEMP:  24; 6HR MAX TEMP:  33;

BENTON HARBOR  SUNNY     36  22  56 SW16      30.23F WCI  26
6HR MIN TEMP:  26; 6HR MAX TEMP:  36;

BIG RAPIDS     CLOUDY    32  23  68 SW15      30.12F WCI  22
6HR MIN TEMP:  28; 6HR MAX TEMP:  33;

COLDWATER      SUNNY     33  25  71 W13       30.21F WCI  24
6HR MIN TEMP:  18; 6HR MAX TEMP:  33;

FREMONT        CLOUDY    32  25  74 SW9G16    30.15F WCI  25
HOLLAND        CLOUDY    34  25  69 SW17      30.21F WCI  23
6HR MIN TEMP:  25; 6HR MAX TEMP:  34;

GRAND RAPIDS   CLOUDY    33  25  72 SW18G24   30.19F WCI  22
6HR MIN TEMP:  27; 6HR MAX TEMP:  34;

IONIA          CLOUDY    32  25  73 SW20      30.17F WCI  21
6HR MIN TEMP:  26; 6HR MAX TEMP:  33;

KALAMAZOO      SUNNY     33  22  63 SW13      30.21F WCI  24
6HR MIN TEMP:  24; 6HR MAX TEMP:  34;

LUDINGTON      CLOUDY    32  26  78 SW10      30.15S WCI  23
6HR MIN TEMP:  31; 6HR MAX TEMP:  32;

MARSHALL       SUNNY     35  22  61 SW14G21   30.21F WCI  25
6HR MIN TEMP:  24; 6HR MAX TEMP:  35;

MOUNT PLEASANT CLOUDY    35  22  60 SW15G21   30.14F WCI  25
6HR MIN TEMP:  27; 6HR MAX TEMP:  35;

MUSKEGON       CLOUDY    35  24  64 SW13G22   30.18F WCI  26
6HR MIN TEMP:  32; 6HR MAX TEMP:  36;

SOUTH HAVEN    PTSUNNY   33  27  78 SW12      30.22F WCI  24
$$
MIZ016>042-061900-
NORTHERN LOWER MICHIGAN

CITY           SKY/WX    TMP DP  RH WIND       PRES   REMARKS
ALPENA         CLOUDY    32  23  69 W12G21    30.07F WCI  23
6HR MIN TEMP:  23; 6HR MAX TEMP:  32; 6HR PCP: TRACE;

BEAVER ISLAND  CLOUDY    29  21  71 W16       30.06F WCI  18
6HR MIN TEMP:  28; 6HR MAX TEMP:  30;

BELLAIRE       CLOUDY    31  24  78 SW7       30.10F WCI  24
6HR MIN TEMP:  27; 6HR MAX TEMP:  31;

CADILLAC       CLOUDY    29  24  83 SW9       30.08F WCI  20
CHARLEVOIX     CLOUDY    30  24  78 W13G18    30.10F WCI  20
6HR MIN TEMP:  29; 6HR MAX TEMP:  30;

FRANKFORT      CLOUDY    30  25  80 W12       30.12F WCI  21
GAYLORD        MIX PCPN  27  23  85 W15G24    30.04F FOG     WCI  15
6HR MIN TEMP:  24; 6HR MAX TEMP:  27; 6HR PCP: TRACE;

GRAYLING       FLURRIES  29  24  83 W13G21    30.08F WCI  18
6HR MIN TEMP:  24; 6HR MAX TEMP:  29;

HARBOR SPRINGS CLOUDY    30  24  78 W8G17     30.06F WCI  22
HOUGHTON LAKE  CLOUDY    30  22  72 W15G24    30.09F WCI  19
6HR MIN TEMP:  23; 6HR MAX TEMP:  30;

MANISTEE       CLOUDY    30  23  74 W10       30.13F WCI  21
OSCODA         CLOUDY    33  23  66 W20G30    30.09F WCI  21
6HR MIN TEMP:  24; 6HR MAX TEMP:  33;

PELLSTON       CLOUDY    29  22  75 W6        30.06F WCI  23
6HR MIN TEMP:  28; 6HR MAX TEMP:  30; 6HR PCP:  0.04;

ROGERS CITY    CLOUDY    30  23  76 W14G21    30.06F WCI  19
TRAVERSE CITY  CLOUDY    30  23  75 W9G17     30.10F WCI  22
6HR MIN TEMP:  28; 6HR MAX TEMP:  31; 6HR PCP:  0.01;

$$
MIZ007>008-015-061900-
EASTERN UPPER MICHIGAN

CITY           SKY/WX    TMP DP  RH WIND       PRES   REMARKS
KINROSS        CLOUDY    28  25  86 W9G16     30.01F WCI  20
6HR MIN TEMP:  25; 6HR MAX TEMP:  28;

MACKINAC ISLAN CLOUDY    29  24  78 W12G20    30.03F WCI  20
6HR MIN TEMP:  26; 6HR MAX TEMP:  29;

NEWBERRY       CLOUDY    26  20  77 SW8       30.01F WCI  18
6HR MIN TEMP:  23; 6HR MAX TEMP:  26;

S. S. MARIE    CLOUDY    28  21  75 SW10      29.99F WCI  19
6HR MIN TEMP:  25; 6HR MAX TEMP:  28; 6HR PCP: TRACE;

MUNISING         N/A     31  19  61 VRB7      30.02F WCI  24
6HR MIN TEMP:  25; 6HR MAX TEMP:  31;

$$
MIZ004>006-011>014-085-061900-
CENTRAL UPPER MICHIGAN

CITY           SKY/WX    TMP DP  RH WIND       PRES   REMARKS
MANISTIQUE     CLOUDY    31  20  62 W6        30.03F WCI  25
6HR MIN TEMP:  25; 6HR MAX TEMP:  31;

ESCANABA       PTSUNNY   28  16  59 W8        30.07F WCI  20
6HR MIN TEMP:  25; 6HR MAX TEMP:  30;

MENOMINEE      CLOUDY    28  19  69 W7        30.10S WCI  21
6HR MIN TEMP:  25; 6HR MAX TEMP:  28;

SAWYER-GWINN   CLOUDY    27  18  69 W14G20    30.01F WCI  15
$$
MIZ001>003-009>011-084-061900-
WESTERN UPPER MICHIGAN

CITY           SKY/WX    TMP DP  RH WIND       PRES   REMARKS
IRON MOUNTAIN  CLOUDY    26  18  71 W9        30.03F WCI  17
6HR MIN TEMP:  23; 6HR MAX TEMP:  26;

HOUGHTON       LGT SNOW  26  19  74 W12       29.98F WCI  16
6HR MIN TEMP:  25; 6HR MAX TEMP:  26; 6HR PCP: TRACE;

COPPER HARBOR    N/A     28  23  81 N3        30.00F
6HR MIN TEMP:  28; 6HR MAX TEMP:  30; 6HR PCP:  0.01;

IRONWOOD       CLOUDY    28  19  69 S8        29.96F WCI  20
6HR MIN TEMP:  19; 6HR MAX TEMP:  28;

$$

ABBREVIATIONS USED IN REMARKS
   TC - TEMPERATURE IN CELSIUS
  WCI - WIND CHILL INDEX
   HX - HEAT INDEX
  VSB - VISIBILITY





USA.gov is the U.S. government's official web portal to all federal, state and local government web resources and services.